| time (UTC) | temp C | wind direction | speed KPH | gust KPH | rain 1hr cm | rain 24hr cm | rain mn cm | humidity % | barometer mb |
| 20260507140036 | 8 | 0 | 0.0 | 4.8 | 0.00 | 0.03 | 0.00 | 66 | 1011.8 |
| 20260507134544 | 8 | 0 | 0.0 | 3.2 | 0.00 | 0.05 | 0.00 | 64 | 1012.0 |
| 20260507133039 | 7 | 0 | 0.0 | 4.8 | 0.00 | 0.05 | 0.00 | 66 | 1012.2 |
| 20260507131541 | 6 | 105 | 0.0 | 4.8 | 0.00 | 0.05 | 0.00 | 65 | 1012.3 |
| 20260507130038 | 5 | 90 | 0.0 | 6.4 | 0.00 | 0.05 | 0.00 | 64 | 1012.2 |
| 20260507124537 | 5 | 113 | 0.0 | 4.8 | 0.00 | 0.13 | 0.00 | 47 | 1012.3 |
| 20260507123036 | 4 | 18 | 0.0 | 1.6 | 0.00 | 0.13 | 0.00 | 100 | 1012.4 |
| 20260507121540 | 3 | 71 | 0.0 | 1.6 | 0.00 | 0.13 | 0.00 | 100 | 1012.4 |
| 20260507120039 | 3 | 0 | 0.0 | 1.6 | 0.00 | 0.13 | 0.00 | 100 | 1012.7 |
| 20260507114538 | 4 | 0 | 0.0 | 0.0 | 0.00 | 0.20 | 0.00 | 100 | 1012.7 |
| 20260507113038 | 4 | 0 | 0.0 | 1.6 | 0.00 | 0.20 | 0.00 | 100 | 1012.8 |
| 20260507111543 | 4 | 0 | 0.0 | 0.0 | 0.00 | 0.20 | 0.00 | 100 | 1012.4 |
| 20260507110037 | 4 | 0 | 0.0 | 1.6 | 0.00 | 0.20 | 0.00 | 100 | 1011.9 |
| 20260507104540 | 3 | 0 | 0.0 | 0.0 | 0.00 | 0.28 | 0.00 | 100 | 1011.8 |
| 20260507103041 | 3 | 0 | 0.0 | 0.0 | 0.00 | 0.28 | 0.00 | 100 | 1011.7 |
| 20260507101546 | 3 | 0 | 0.0 | 0.0 | 0.00 | 0.28 | 0.00 | 100 | 1011.7 |
| 20260507100042 | 3 | 0 | 0.0 | 0.0 | 0.00 | 0.28 | 0.00 | 100 | 1011.7 |
| 20260507094544 | 3 | 0 | 0.0 | 0.0 | 0.00 | 0.48 | 0.00 | 100 | 1011.7 |
| 20260507093042 | 3 | 0 | 0.0 | 0.0 | 0.00 | 0.48 | 0.00 | 100 | 1011.7 |
| 20260507091541 | 3 | 0 | 0.0 | 0.0 | 0.00 | 0.48 | 0.00 | 100 | 1011.5 |
| 20260507090038 | 2 | 0 | 0.0 | 0.0 | 0.00 | 0.48 | 0.00 | 100 | 1011.6 |
| 20260507084539 | 2 | 0 | 0.0 | 0.0 | 0.00 | 0.66 | 0.00 | 100 | 1011.7 |
| 20260507083039 | 2 | 0 | 0.0 | 0.0 | 0.00 | 0.66 | 0.00 | 100 | 1011.7 |
| 20260507081539 | 2 | 0 | 0.0 | 0.0 | 0.00 | 0.66 | 0.00 | 100 | 1011.7 |
| 20260507080040 | 2 | 0 | 0.0 | 0.0 | 0.00 | 0.66 | 0.00 | 100 | 1011.7 |
| 20260507074540 | 2 | 0 | 0.0 | 0.0 | 0.00 | 0.81 | 0.00 | 100 | 1011.6 |
| 20260507073039 | 2 | 0 | 0.0 | 0.0 | 0.00 | 0.81 | 0.00 | 100 | 1011.4 |
| 20260507071539 | 3 | 0 | 0.0 | 0.0 | 0.00 | 0.81 | 0.00 | 100 | 1011.5 |
| 20260507070038 | 3 | 0 | 0.0 | 0.0 | 0.00 | 0.81 | 0.00 | 100 | 1011.6 |
| 20260507064538 | 3 | 0 | 0.0 | 0.0 | 0.00 | 0.97 | 0.00 | 100 | 1011.8 |
| 20260507063045 | 4 | 0 | 0.0 | 0.0 | 0.00 | 0.97 | 0.00 | 100 | 1012.0 |
| 20260507061541 | 4 | 0 | 0.0 | 0.0 | 0.00 | 0.97 | 0.00 | 100 | 1012.0 |
| 20260507060050 | 5 | 0 | 0.0 | 0.0 | 0.00 | 0.97 | 0.00 | 100 | 1012.1 |
| 20260507054546 | 5 | 0 | 0.0 | 0.0 | 0.00 | 1.19 | 0.00 | 100 | 1012.1 |
| 20260507053041 | 5 | 0 | 0.0 | 0.0 | 0.00 | 1.19 | 0.00 | 100 | 1012.3 |
| 20260507051538 | 5 | 0 | 0.0 | 0.0 | 0.00 | 1.19 | 0.00 | 100 | 1012.4 |
| 20260507050038 | 5 | 0 | 0.0 | 0.0 | 0.00 | 1.19 | 0.00 | 100 | 1012.7 |
| 20260507044553 | 5 | 0 | 0.0 | 0.0 | 0.00 | 1.47 | 0.00 | 100 | 1012.6 |
| 20260507043038 | 5 | 0 | 0.0 | 0.0 | 0.00 | 1.47 | 0.00 | 100 | 1012.7 |
| 20260507041538 | 5 | 0 | 0.0 | 1.6 | 0.00 | 1.47 | 0.00 | 100 | 1012.5 |
| 20260507040039 | 5 | 0 | 0.0 | 0.0 | 0.00 | 1.47 | 0.00 | 100 | 1012.6 |
| 20260507034541 | 5 | 0 | 0.0 | 0.0 | 0.00 | 1.55 | 1.47 | 100 | 1012.5 |
| 20260507033035 | 5 | 0 | 0.0 | 0.0 | 0.00 | 1.55 | 1.47 | 100 | 1012.4 |
| 20260507031539 | 5 | 0 | 0.0 | 0.0 | 0.00 | 1.55 | 1.47 | 100 | 1012.5 |
| 20260507030038 | 5 | 0 | 0.0 | 1.6 | 0.00 | 1.55 | 1.47 | 100 | 1012.6 |
| 20260507024542 | 5 | 0 | 0.0 | 1.6 | 0.00 | 1.70 | 1.47 | 100 | 1012.4 |
| 20260507023038 | 5 | 0 | 0.0 | 1.6 | 0.00 | 1.70 | 1.47 | 100 | 1012.4 |
| 20260507021537 | 5 | 0 | 0.0 | 1.6 | 0.00 | 1.70 | 1.47 | 100 | 1012.4 |
| 20260507020045 | 5 | 0 | 0.0 | 1.6 | 0.00 | 1.70 | 1.47 | 100 | 1012.7 |
| 20260507014538 | 5 | 0 | 0.0 | 1.6 | 0.00 | 1.73 | 1.47 | 100 | 1012.8 |
| 20260507013045 | 5 | 0 | 0.0 | 0.0 | 0.00 | 1.73 | 1.47 | 100 | 1012.7 |
| 20260507011541 | 5 | 0 | 0.0 | 0.0 | 0.00 | 1.73 | 1.47 | 100 | 1012.5 |
| 20260507010043 | 5 | 0 | 0.0 | 0.0 | 0.00 | 1.73 | 1.47 | 100 | 1012.3 |
| 20260507004538 | 5 | 0 | 0.0 | 0.0 | 0.00 | 2.08 | 1.47 | 100 | 1012.2 |
| 20260507003035 | 5 | 0 | 0.0 | 0.0 | 0.00 | 2.08 | 1.47 | 100 | 1012.0 |
| 20260507001542 | 5 | 0 | 0.0 | 0.0 | 0.00 | 2.08 | 1.47 | 100 | 1011.9 |
| 20260507000040 | 5 | 0 | 0.0 | 0.0 | 0.00 | 2.08 | 1.47 | 100 | 1011.9 |
| 20260506234541 | 5 | 0 | 0.0 | 0.0 | 0.00 | 2.41 | 1.47 | 100 | 1011.6 |
| 20260506233038 | 5 | 0 | 0.0 | 4.8 | 0.00 | 2.41 | 1.47 | 100 | 1011.8 |
| 20260506231540 | 5 | 0 | 0.0 | 4.8 | 0.00 | 2.41 | 1.47 | 100 | 1011.6 |
| 20260506230035 | 5 | 0 | 0.0 | 3.2 | 0.00 | 2.41 | 1.47 | 100 | 1011.4 |
| 20260506224554 | 5 | 0 | 0.0 | 4.8 | 0.00 | 2.64 | 1.47 | 100 | 1011.2 |
| 20260506223038 | 5 | 0 | 1.6 | 4.8 | 0.00 | 2.64 | 1.47 | 100 | 1011.0 |
| 20260506221539 | 5 | 352 | 0.0 | 11.3 | 0.00 | 2.64 | 1.47 | 100 | 1010.7 |
| 20260506220039 | 5 | 329 | 4.8 | 9.7 | 0.00 | 2.64 | 1.47 | 100 | 1010.7 |
| 20260506214542 | 5 | 0 | 0.0 | 12.9 | 0.00 | 3.17 | 1.47 | 100 | 1010.6 |
| 20260506213041 | 6 | 295 | 4.8 | 17.7 | 0.00 | 3.17 | 1.47 | 100 | 1010.4 |
| 20260506211539 | 6 | 319 | 4.8 | 17.7 | 0.00 | 3.17 | 1.47 | 100 | 1010.0 |
| 20260506210040 | 7 | 0 | 6.4 | 14.5 | 0.00 | 3.17 | 1.47 | 100 | 1009.9 |
| 20260506204538 | 9 | 281 | 6.4 | 17.7 | 0.00 | 3.23 | 1.47 | 24 | 1009.4 |
| 20260506203040 | 10 | 228 | 11.3 | 24.1 | 0.00 | 3.23 | 1.47 | 47 | 1009.2 |
| 20260506201538 | 10 | 226 | 6.4 | 16.1 | 0.00 | 3.23 | 1.47 | 46 | 1009.1 |
| 20260506200037 | 10 | 210 | 1.6 | 9.7 | 0.00 | 3.23 | 1.47 | 34 | 1009.2 |
| 20260506194543 | 10 | 238 | 4.8 | 9.7 | 0.00 | 3.23 | 1.47 | 24 | 1009.2 |
| 20260506193034 | 10 | 0 | 0.0 | 0.0 | 0.00 | 3.23 | 1.47 | 11 | 1009.3 |
| 20260506191539 | 10 | 0 | 0.0 | 0.0 | 0.00 | 3.23 | 1.47 | 19 | 1009.3 |
| 20260506190039 | 10 | 0 | 0.0 | 3.2 | 0.00 | 3.23 | 1.47 | 12 | 1009.1 |
| 20260506184538 | 10 | 0 | 0.0 | 3.2 | 0.00 | 3.23 | 1.47 | 4 | 1009.1 |
| 20260506183039 | 10 | 0 | 0.0 | 1.6 | 0.00 | 3.23 | 1.47 | 5 | 1009.1 |
| 20260506181544 | 9 | 0 | 0.0 | 4.8 | 0.00 | 3.23 | 1.47 | 100 | 1009.3 |
| 20260506180043 | 9 | 0 | 0.0 | 0.0 | 0.00 | 3.23 | 1.47 | 100 | 1009.2 |
| 20260506174539 | 8 | 0 | 0.0 | 1.6 | 0.00 | 3.23 | 1.47 | 100 | 1009.3 |
| 20260506173041 | 8 | 0 | 0.0 | 4.8 | 0.00 | 3.23 | 1.47 | 100 | 1009.3 |
| 20260506171551 | 8 | 0 | 0.0 | 3.2 | 0.00 | 3.23 | 1.47 | 100 | 1009.3 |
| 20260506170039 | 8 | 0 | 0.0 | 0.0 | 0.00 | 3.23 | 1.47 | 100 | 1009.4 |
| 20260506164540 | 8 | 0 | 0.0 | 1.6 | 0.00 | 3.23 | 1.47 | 100 | 1009.3 |
| 20260506163043 | 8 | 0 | 0.0 | 1.6 | 0.00 | 3.23 | 1.47 | 100 | 1009.0 |
| 20260506161538 | 8 | 0 | 0.0 | 1.6 | 0.00 | 3.23 | 1.47 | 100 | 1009.1 |
| 20260506160039 | 8 | 0 | 0.0 | 1.6 | 0.00 | 3.23 | 1.47 | 100 | 1009.0 |
| 20260506154539 | 8 | 0 | 0.0 | 1.6 | 0.00 | 3.23 | 1.47 | 100 | 1009.1 |
| 20260506153041 | 8 | 0 | 0.0 | 1.6 | 0.00 | 3.23 | 1.47 | 100 | 1009.0 |
| 20260506151540 | 8 | 0 | 0.0 | 3.2 | 0.03 | 3.23 | 1.47 | 100 | 1008.8 |
| 20260506150039 | 8 | 0 | 0.0 | 0.0 | 0.03 | 3.23 | 1.47 | 100 | 1008.9 |
| 20260506144546 | 7 | 30 | 0.0 | 4.8 | 0.05 | 3.23 | 1.47 | 100 | 1008.7 |
| 20260506143038 | 7 | 0 | 0.0 | 0.0 | 0.05 | 3.23 | 1.47 | 100 | 1008.6 |
| 20260506141534 | 7 | 0 | 0.0 | 1.6 | 0.03 | 3.20 | 1.45 | 100 | 1008.8 |